カタログに戻る

HEAD-1

運用中科学SSO
NORAD 43011·PAYLOAD·🇨🇳 China

打ち上げ Nov 14, 2017 から Taiyuan Satellite Launch Center

Loading…

次のパス (今後24時間)

TLE

最新Source: Space-Track

元期: Sep 14, 2026, 14:15 UTC

1 43011U 17072B   26257.59390139  .00000162  00000-0  82768-4 0  9991
2 43011  98.9534 278.4872 0008881 253.9140 106.1063 14.28844392460121

AllMySatでHEAD-1をリアルタイム追跡

Download on the App Store